Regional Weather Roundup
Issued by NWS

Home | Current Version | Previous Version | Text Only | Print | Product List | Glossary Off
Versions: 1 2 3 4 5 6 7 8 9 10 11 12 13 14 15 16 17 18 19 20 21 22 23 24 25 26 27 28 29 30 31 32 33 34 35 36 37 38 39 40 41 42 43 44 45 46 47 48 49 50

000
ASUS43 KFSD 301110
RWRSD

WEATHER ROUNDUP FOR SOUTH DAKOTA
NATIONAL WEATHER SERVICE SIOUX FALLS SD
600 AM CDT SAT AUG 30 2014

NOTE: "FAIR" INDICATES FEW OR NO CLOUDS BELOW 12,000 FEET WITH NO
SIGNIFICANT WEATHER AND/OR OBSTRUCTIONS TO VISIBILITY.


SDZ001>005-009-010-012>017-301200-
NORTHWEST AND NORTH CENTRAL SOUTH DAKOTA

CITY           SKY/WX    TMP DP  RH WIND       PRES   REMARKS
BUFFALO          N/A     53  51  93 SE8       29.87F
FAITH            N/A     53  52  96 SE10      29.96F
MOBRIDGE       CLEAR     54  54 100 NE5       29.94F
$$

SDZ012>016-024>037-041>051-057-063-072>074-301200-
SOUTHWEST AND SOUTH CENTRAL SOUTH DAKOTA

CITY           SKY/WX    TMP DP  RH WIND       PRES   REMARKS
RAPID CTY ARPT CLEAR     54  52  93 S7        29.97F
PIERRE         CLEAR     51  51 100 N6        29.95F
CUSTER         CLEAR     47  45  93 NW5       30.05F
ELLSWORTH AFB  CLEAR     56  53  92 S7        29.96F
PHILIP         FOG       51  50  96 SE3       29.97S VSB 1/2
PINE RIDGE     CLEAR     54  52  93 S3        29.98F
WINNER         FOG       55  54  96 W3        29.98S VSB 1/4
$$

SDZ004>011-016>023-039-040-301200-
NORTHEAST SOUTH DAKOTA

CITY           SKY/WX    TMP DP  RH WIND       PRES   REMARKS
ABERDEEN       CLOUDY    58  56  93 N9        29.94S
WATERTOWN      CLOUDY    59  58  96 N9        29.90S
SISSETON         N/A     59  57  93 N12       29.89S
$$

SDZ017-020-022-023-036>040-048>070-301200-
SOUTHEAST SOUTH DAKOTA

CITY           SKY/WX    TMP DP  RH WIND       PRES   REMARKS
SIOUX FALLS    CLOUDY    65  63  93 NW9       29.89S
HURON          CLOUDY    60  56  86 NW12      29.93R
CHAMBERLAIN    CLOUDY    55  55  97 NW5       29.97S
MITCHELL       CLOUDY    61  59  93 NW9       29.93S
YANKTON        MOCLDY    61  57  88 NW12      29.92S
$$

ABBREVIATIONS USED IN REMARKS
   TC - TEMPERATURE IN CELSIUS
  WCI - WIND CHILL INDEX
   HX - HEAT INDEX
  VSB - VISIBILITY




USA.gov is the U.S. government's official web portal to all federal, state and local government web resources and services.